Location: Unspecified
(0.0000°N, 0.0000°E)
Time: 01:25:44
(UTC+00:00)

Hubble Space Telescope - Pass Details

Date: 21 October 2017
Orbit: 537 x 541 km, 28.5° (Epoch: 20 October)

Event Time Altitude Azimuth Distance (km) Brightness Sun altitude
Exits shadow 04:15:20 23° 199° (SSW) 1,161 2.4 -21.9°
Drops below altitude 10° 04:18:15 10° 155° (SSE) 1,789 3.9 -21.2°
Sets 04:20:51 0° 140° (SE) 2,682 5.1 -20.6°
